Location: Newark
(34.2872°N, 118.4389°W)
Time: 16:50:41
(UTC+00:00)

ISS - Visible Passes

Search period start: 19 January 2020 00:00
Search period end: 29 January 2020 00:00
Orbit: 415 x 421 km, 51.6° (Epoch: 20 January)

Date Brightness Start Highest point End Pass type
(mag) Time Alt. Az. Time Alt. Az. Time Alt. Az.
19 Jan -3.8 02:39:27 10° SW 02:42:46 63° SE 02:42:48 63° SE visible
20 Jan -2.7 01:51:53 10° SSW 01:54:53 31° SE 01:57:14 14° ENE visible
20 Jan -0.9 03:28:58 10° W 03:30:12 17° WNW 03:30:12 17° WNW visible
21 Jan -2.5 02:40:28 10° WSW 02:43:36 36° NW 02:44:33 29° N visible
22 Jan -3.5 01:52:14 10° SW 01:55:34 69° NW 01:58:49 11° NE visible
23 Jan -1.3 02:42:34 10° WNW 02:44:38 15° NNW 02:45:56 13° N visible
24 Jan -1.8 01:53:42 10° W 01:56:27 23° NW 01:59:13 10° NNE visible
26 Jan -1.0 01:56:39 10° NW 01:57:34 11° NNW 01:58:28 10° N visible
